Van Nuys, CA

2:44 PM PDT on July 27, 2017 (GMT -0700)
Van Nuys

Weather History for KVNY - May, 2013

Change the Weather History Date:

Monday, May 13, 2013

  Actual Average Record
Temperature  
Mean Temperature 86 °F -  
Max Temperature 102 °F 75 °F 102 °F (2013)
Min Temperature 71 °F 53 °F 50 °F (2000)
Cooling Degree Days 22    
Growing Degree Days 36 (Base 50)    
Moisture  
Dew Point 42 °F    
Average Humidity 26    
Maximum Humidity 51    
Minimum Humidity 8    
Precipitation  
Precipitation 0.00 in - - ()
Sea Level Pressure  
Sea Level Pressure 29.90 in    
Wind  
Wind Speed 3 mph (West)    
Max Wind Speed 14 mph    
Max Gust Speed 21 mph    
Visibility 10 miles    
Events      
Averages and records for this station are not official NWS values.
T = Trace of Precipitation, MM = Missing Value Source: NWS Daily Summary

Daily Weather History Graph

Daily Weather History Graph

Search for Another Location

Airport or City:

Trip Planner

Search our weather history database for the weather conditions in past years. The results will help you decide how hot, cold, wet, or windy it might be!

Date:

Astronomy

May. 13, 2013 Rise Set
Actual Time 5:53 AM PDT 7:47 PM PDT
Civil Twilight 5:25 AM PDT 8:15 PM PDT
Nautical Twilight 4:52 AM PDT 8:48 PM PDT
Astronomical Twilight 4:16 AM PDT 9:24 PM PDT
Moon 8:44 AM PDT (5/13) 11:00 PM PDT (5/13)
Length of Visible Light 14h 49m
Length of Day
13h 54m
Waxing Crescent, 13% of the Moon is Illuminated
May 13
Waxing Crescent
May 17
First Quarter
May 24
Full
May 31
Last Quarter
Jun 8
New

Hourly Weather History & Observations

Time (PDT) Temp. Dew Point Humidity Pressure Visibility Wind Dir Wind Speed Gust Speed Precip Events Conditions
12:51 AM 78.1 °F 54.0 °F 43% 29.93 in 10.0 mi Calm Calm - N/A   Clear
1:51 AM 75.9 °F 53.1 °F 45% 29.92 in 10.0 mi Calm Calm - N/A   Clear
2:51 AM 73.0 °F 53.1 °F 49% 29.91 in 10.0 mi Calm Calm - N/A   Clear
3:51 AM 71.1 °F 52.0 °F 51% 29.91 in 10.0 mi Calm Calm - N/A   Clear
4:51 AM 71.1 °F 52.0 °F 51% 29.91 in 10.0 mi Calm Calm - N/A   Clear
5:51 AM 71.1 °F 51.1 °F 49% 29.91 in 10.0 mi Calm Calm - N/A   Clear
6:51 AM 73.0 °F 52.0 °F 48% 29.94 in 10.0 mi Calm Calm - N/A   Clear
7:51 AM 79.0 °F 50.0 °F 36% 29.94 in 10.0 mi Calm Calm - N/A   Clear
8:51 AM 84.9 °F 51.1 °F 31% 29.94 in 10.0 mi Calm Calm - N/A   Clear
9:51 AM 91.9 °F 46.0 °F 21% 29.94 in 10.0 mi Calm Calm - N/A   Clear
10:51 AM 98.1 °F 39.0 °F 13% 29.94 in 10.0 mi Calm Calm - N/A   Clear
11:51 AM 99.0 °F 45.0 °F 16% 29.93 in 10.0 mi SSE 9.2 mph - N/A   Clear
12:51 PM 100.9 °F 42.1 °F 13% 29.92 in 10.0 mi SSE 10.4 mph - N/A   Clear
1:51 PM 102.0 °F 42.1 °F 13% 29.90 in 10.0 mi Variable 4.6 mph - N/A   Clear
2:51 PM 102.0 °F 30.9 °F 8% 29.88 in 10.0 mi WNW 11.5 mph 19.6 mph N/A   Clear
3:51 PM 100.9 °F 33.1 °F 9% 29.87 in 10.0 mi NW 13.8 mph 19.6 mph N/A   Clear
5:51 PM 96.1 °F 35.1 °F 12% 29.86 in 10.0 mi WNW 13.8 mph 20.7 mph N/A   Clear
6:51 PM 91.0 °F 30.9 °F 12% 29.86 in 10.0 mi WNW 10.4 mph - N/A   Clear
7:51 PM 88.0 °F 24.1 °F 10% 29.87 in 10.0 mi West 8.1 mph 16.1 mph N/A   Clear
8:51 PM 86.0 °F 28.9 °F 13% 29.88 in 10.0 mi Variable 5.8 mph - N/A   Clear
9:51 PM 82.9 °F 32.0 °F 16% 29.88 in 10.0 mi West 3.5 mph - N/A   Clear
10:51 PM 80.1 °F 33.1 °F 18% 29.88 in 10.0 mi Calm Calm - N/A   Clear
11:51 PM 79.0 °F 37.0 °F 22% 29.88 in 10.0 mi WNW 3.5 mph - N/A   Clear